Location: Musselshell
(46.5176°N, 108.0911°W)
Time: 16:21:08
(UTC+00:00)

FO-29 - Pass Details

Date: 02 July 2022
Orbit: 799 x 1322 km, 98.5° (Epoch: 16 August)

Event Time Altitude Azimuth Distance (km) Brightness Sun altitude
Rises 03:38:07 0° 226° (SW) 4,172 12.9 -4.8°
Reaches altitude 10° 03:42:29 10° 250° (WSW) 3,283 12.7 -5.3°
Maximum altitude 03:46:10 14° 279° (W) 3,029 13.0 -5.8°
Drops below altitude 10° 03:49:55 10° 309° (NW) 3,356 14.1 -6.3°
Sets 03:54:33 0° 333° (NNW) 4,333 14.5 -6.8°
